,,Stat5,,Stat1,,Stat2,,Stat3,,Stat4,,Wind1,,Wind1,
time,status,PA1M_AVG,status,PR1M_SUM,status,RH1M_AVG,status,SR1M_AVG,status,TA1M_AVG,status,W1dAve1m,status,W1sAve1m,
2000-04-21, 00:00:00,VALID,916.809,VALID,0,VALID,98.8698,VALID,0,VALID,19.5183,VALID,227,VALID,0.470395,
2000-04-21, 00:01:00,VALID,916.789,VALID,0,VALID,98.8571,VALID,-0.0169808,VALID,19.5119,VALID,229,VALID,0.535156,
2000-04-21, 00:02:00,VALID,916.77,VALID,0,VALID,98.8736,VALID,-0.0169808,VALID,19.5119,VALID,229,VALID,0.580729,
2000-04-21, 00:03:00,VALID,916.754,VALID,0,VALID,98.8838,VALID,0,VALID,19.5119,VALID,234,VALID,0.625,
2000-04-21, 00:04:00,VALID,916.747,VALID,0,VALID,98.8863,VALID,0,VALID,19.4923,VALID,239,VALID,0.562089,
2000-04-21, 00:05:00,VALID,916.749,VALID,0,VALID,98.9016,VALID,-0.0169808,VALID,19.5019,VALID,233,VALID,0.276727,
2000-04-21, 00:06:00,VALID,916.745,VALID,0,VALID,98.9385,VALID,0,VALID,19.5183,VALID,227,VALID,0.275082,
2000-04-21, 00:07:00,VALID,916.726,VALID,0,VALID,98.9499,VALID,-0.0849042,VALID,19.5161,VALID,194,VALID,0.156456,
2000-04-21, 00:08:00,VALID,916.72,VALID,0,VALID,98.9486,VALID,-0.101885,VALID,19.5357,VALID,189,VALID,0,
2000-04-21, 00:09:00,VALID,916.716,VALID,0,VALID,98.969,VALID,-0.101885,VALID,19.536,VALID,160,VALID,0,
2000-04-21, 00:10:00,VALID,916.718,VALID,0,VALID,98.9588,VALID,-0.101885,VALID,19.5457,VALID,160,VALID,0,
2000-04-21, 00:11:00,VALID,916.721,VALID,0,VALID,98.9346,VALID,-0.101885,VALID,19.5457,VALID,160,VALID,0,
2000-04-21, 00:12:00,VALID,916.734,VALID,0,VALID,98.9525,VALID,-0.0849042,VALID,19.5452,VALID,163,VALID,0,
2000-04-21, 00:13:00,VALID,916.729,VALID,0,VALID,98.9385,VALID,-0.101885,VALID,19.5521,VALID,164,VALID,0,
2000-04-21, 00:14:00,VALID,916.735,VALID,0,VALID,98.9283,VALID,-0.101885,VALID,19.5521,VALID,168,VALID,0,
2000-04-21, 00:15:00,VALID,916.724,VALID,0,VALID,98.9346,VALID,-0.101885,VALID,19.5419,VALID,168,VALID,0,
2000-04-21, 00:16:00,VALID,916.716,VALID,0,VALID,98.9588,VALID,-0.118866,VALID,19.5645,VALID,168,VALID,0,
2000-04-21, 00:17:00,VALID,916.702,VALID,0,VALID,98.9181,VALID,-0.101885,VALID,19.575,VALID,168,VALID,0,
2000-04-21, 00:18:00,VALID,916.688,VALID,0,VALID,98.9207,VALID,-0.101885,VALID,19.5678,VALID,168,VALID,0,
2000-04-21, 00:19:00,VALID,916.678,VALID,0,VALID,98.9423,VALID,-0.101885,VALID,19.5874,VALID,168,VALID,0,
2000-04-21, 00:20:00,VALID,916.648,VALID,0,VALID,98.9779,VALID,-0.101885,VALID,19.6232,VALID,168,VALID,0,
2000-04-21, 00:21:00,VALID,916.632,VALID,0,VALID,98.983,VALID,-0.101885,VALID,19.6587,VALID,165,VALID,0,
2000-04-21, 00:22:00,VALID,916.635,VALID,0,VALID,98.9766,VALID,-0.0339617,VALID,19.6798,VALID,165,VALID,0,
2000-04-21, 00:23:00,VALID,916.621,VALID,0,VALID,98.9792,VALID,0,VALID,19.7062,VALID,165,VALID,0,
2000-04-21, 00:24:00,VALID,916.628,VALID,0,VALID,98.9728,VALID,0,VALID,19.7283,VALID,165,VALID,0,
2000-04-21, 00:25:00,VALID,916.637,VALID,0,VALID,98.9359,VALID,0,VALID,19.7377,VALID,165,VALID,0,
2000-04-21, 00:26:00,VALID,916.654,VALID,0,VALID,98.763,VALID,0,VALID,19.6858,VALID,165,VALID,0,
2000-04-21, 00:27:00,VALID,916.672,VALID,0,VALID,98.7019,VALID,-0.0169808,VALID,19.6572,VALID,165,VALID,0,
2000-04-21, 00:28:00,VALID,916.688,VALID,0,VALID,98.7223,VALID,0,VALID,19.6441,VALID,167,VALID,0,
2000-04-21, 00:29:00,VALID,916.686,VALID,0,VALID,98.7477,VALID,0,VALID,19.6634,VALID,172,VALID,0,
2000-04-21, 00:30:00,VALID,916.701,VALID,0,VALID,98.7706,VALID,0,VALID,19.6761,VALID,203,VALID,0.0554888,
2000-04-21, 00:31:00,VALID,916.715,VALID,0,VALID,98.7299,VALID,0,VALID,19.6764,VALID,207,VALID,0.00431743,
2000-04-21, 00:32:00,VALID,916.722,VALID,0,VALID,98.6651,VALID,-0.0169808,VALID,19.6505,VALID,200,VALID,0,
2000-04-21, 00:33:00,VALID,916.72,VALID,0,VALID,98.6473,VALID,0,VALID,19.6374,VALID,203,VALID,0.386719,
2000-04-21, 00:34:00,VALID,916.724,VALID,0,VALID,98.557,VALID,0,VALID,19.6083,VALID,185,VALID,0.879607,
2000-04-21, 00:35:00,VALID,916.717,VALID,0,VALID,98.5443,VALID,0,VALID,19.5824,VALID,171,VALID,1.00164,
2000-04-21, 00:36:00,VALID,916.702,VALID,0,VALID,98.5163,VALID,0.0339617,VALID,19.5762,VALID,170,VALID,0.938301,
2000-04-21, 00:37:00,VALID,916.7,VALID,0,VALID,98.529,VALID,-0.101885,VALID,19.5713,VALID,163,VALID,0.727179,
2000-04-21, 00:38:00,VALID,916.674,VALID,0,VALID,98.5099,VALID,-0.101885,VALID,19.5747,VALID,176,VALID,0.575521,
2000-04-21, 00:39:00,VALID,916.667,VALID,0,VALID,98.5188,VALID,-0.0849042,VALID,19.5713,VALID,167,VALID,0.554893,
2000-04-21, 00:40:01,VALID,916.636,VALID,0,VALID,98.4883,VALID,-0.101885,VALID,19.5807,VALID,164,VALID,0.671274,
2000-04-21, 00:41:00,VALID,916.628,VALID,0,VALID,98.4158,VALID,-0.0679233,VALID,19.5839,VALID,179,VALID,0.666324,
2000-04-21, 00:42:01,VALID,916.607,VALID,0,VALID,98.3573,VALID,-0.101885,VALID,19.5901,VALID,172,VALID,0.519832,
2000-04-21, 00:43:00,VALID,916.592,VALID,0,VALID,98.4209,VALID,-0.101885,VALID,19.6098,VALID,162,VALID,0.168791,
2000-04-21, 00:44:01,VALID,916.595,VALID,0,VALID,98.4743,VALID,-0.101885,VALID,19.6455,VALID,158,VALID,0.073117,
2000-04-21, 00:45:00,VALID,916.584,VALID,0,VALID,98.4883,VALID,-0.101885,VALID,19.6587,VALID,134,VALID,0,
2000-04-21, 00:46:00,VALID,916.581,VALID,0,VALID,98.5277,VALID,-0.118866,VALID,19.6716,VALID,113,VALID,0,
2000-04-21, 00:47:00,VALID,916.567,VALID,0,VALID,98.5481,VALID,-0.101885,VALID,19.6873,VALID,121,VALID,0,
2000-04-21, 00:48:00,VALID,916.554,VALID,0,VALID,98.454,VALID,-0.101885,VALID,19.6779,VALID,149,VALID,0,
2000-04-21, 00:49:00,VALID,916.536,VALID,0,VALID,98.3357,VALID,-0.118866,VALID,19.6493,VALID,164,VALID,0.528783,
2000-04-21, 00:50:01,VALID,916.527,VALID,0,VALID,98.3116,VALID,-0.118866,VALID,19.6391,VALID,175,VALID,0.447716,
2000-04-21, 00:51:00,VALID,916.499,VALID,0,VALID,98.351,VALID,-0.101885,VALID,19.6428,VALID,154,VALID,0.325863,
2000-04-21, 00:52:01,VALID,916.485,VALID,0,VALID,98.4298,VALID,-0.0849042,VALID,19.6545,VALID,145,VALID,0.108774,
2000-04-21, 00:53:00,VALID,916.466,VALID,0,VALID,98.4133,VALID,-0.0679233,VALID,19.6679,VALID,159,VALID,0.00164474,
2000-04-21, 00:54:01,VALID,916.446,VALID,0,VALID,98.3573,VALID,-0.0849042,VALID,19.6582,VALID,175,VALID,0.313301,
2000-04-21, 00:55:00,VALID,916.423,VALID,0,VALID,98.3662,VALID,-0.101885,VALID,19.6488,VALID,172,VALID,0.538446,
2000-04-21, 00:56:01,VALID,916.381,VALID,0,VALID,98.5099,VALID,-0.118866,VALID,19.6547,VALID,140,VALID,0.380809,
2000-04-21, 00:57:00,VALID,916.372,VALID,0,VALID,98.5227,VALID,-0.101885,VALID,19.6711,VALID,167,VALID,0.477796,
2000-04-21, 00:58:01,VALID,916.35,VALID,0,VALID,98.4527,VALID,-0.101885,VALID,19.6456,VALID,185,VALID,0.455929,
2000-04-21, 00:59:00,VALID,916.319,VALID,0,VALID,98.4921,VALID,-0.0679233,VALID,19.6359,VALID,196,VALID,0.238692,
2000-04-21, 01:00:00,VALID,916.304,VALID,0,VALID,98.5112,VALID,-0.101885,VALID,19.6262,VALID,189,VALID,0.389623,
2000-04-21, 01:01:00,VALID,916.284,VALID,0,VALID,98.5455,VALID,-0.101885,VALID,19.6192,VALID,185,VALID,0.496299,
2000-04-21, 01:02:01,VALID,916.283,VALID,0,VALID,98.5277,VALID,-0.0849042,VALID,19.6195,VALID,187,VALID,0.709736,
2000-04-21, 01:03:00,VALID,916.249,VALID,0,VALID,98.5214,VALID,-0.101885,VALID,19.6259,VALID,198,VALID,0.701069,
2000-04-21, 01:04:01,VALID,916.238,VALID,0,VALID,98.5074,VALID,-0.101885,VALID,19.6453,VALID,201,VALID,0.741787,
2000-04-21, 01:05:00,VALID,916.224,VALID,0,VALID,98.5201,VALID,-0.101885,VALID,19.6677,VALID,205,VALID,0.653783,
2000-04-21, 01:06:01,VALID,916.201,VALID,0,VALID,98.515,VALID,-0.101885,VALID,19.6615,VALID,211,VALID,0.657853,
2000-04-21, 01:07:00,VALID,916.192,VALID,0,VALID,98.5455,VALID,-0.0339617,VALID,19.6662,VALID,212,VALID,0.744655,
2000-04-21, 01:08:01,VALID,916.16,VALID,0,VALID,98.5544,VALID,0,VALID,19.66,VALID,210,VALID,0.687901,
2000-04-21, 01:09:00,VALID,916.148,VALID,0,VALID,98.5176,VALID,0,VALID,19.6535,VALID,212,VALID,0.729646,
2000-04-21, 01:10:01,VALID,916.121,VALID,0,VALID,98.5277,VALID,0,VALID,19.6406,VALID,227,VALID,0.576923,
2000-04-21, 01:11:00,VALID,916.099,VALID,0,VALID,98.5544,VALID,0,VALID,19.6475,VALID,228,VALID,0.429071,
2000-04-21, 01:12:00,VALID,916.072,VALID,0,VALID,98.5608,VALID,-0.0169808,VALID,19.6475,VALID,217,VALID,0.751803,
2000-04-21, 01:13:00,VALID,916.065,VALID,0,VALID,98.5417,VALID,0.0169808,VALID,19.6244,VALID,217,VALID,0.699219,
2000-04-21, 01:14:01,VALID,916.049,VALID,0,VALID,98.5443,VALID,0.0169808,VALID,19.618,VALID,213,VALID,0.962139,
2000-04-21, 01:15:00,VALID,916.038,VALID,0,VALID,98.5557,VALID,0,VALID,19.6016,VALID,212,VALID,0.752467,
2000-04-21, 01:16:01,VALID,916.041,VALID,0,VALID,98.557,VALID,0,VALID,19.582,VALID,205,VALID,0.987179,
2000-04-21, 01:17:00,VALID,916.037,VALID,0,VALID,98.59,VALID,0,VALID,19.5859,VALID,206,VALID,0.91838,
2000-04-21, 01:18:01,VALID,916.03,VALID,0,VALID,98.6078,VALID,-0.0169808,VALID,19.5755,VALID,197,VALID,0.780449,
2000-04-21, 01:19:00,VALID,916.025,VALID,0,VALID,98.6231,VALID,0,VALID,19.5887,VALID,211,VALID,0.561883,
2000-04-21, 01:20:01,VALID,916.004,VALID,0,VALID,98.6053,VALID,0,VALID,19.5921,VALID,217,VALID,1.11278,
2000-04-21, 01:21:00,VALID,915.999,VALID,0,VALID,98.5939,VALID,-0.0169808,VALID,19.576,VALID,217,VALID,1.06517,
2000-04-21, 01:22:01,VALID,915.975,VALID,0,VALID,98.6091,VALID,0.0169808,VALID,19.5827,VALID,212,VALID,0.761418,
2000-04-21, 01:23:00,VALID,915.955,VALID,0,VALID,98.6066,VALID,0,VALID,19.5757,VALID,205,VALID,0.603618,
2000-04-21, 01:24:00,VALID,915.946,VALID,0,VALID,98.6015,VALID,0,VALID,19.5857,VALID,217,VALID,0.671675,
2000-04-21, 01:25:00,VALID,915.913,VALID,0,VALID,98.5862,VALID,-0.0169808,VALID,19.5889,VALID,212,VALID,0.429276,
2000-04-21, 01:26:01,VALID,915.901,VALID,0,VALID,98.5799,VALID,0,VALID,19.5924,VALID,212,VALID,0.588942,
2000-04-21, 01:27:00,VALID,915.875,VALID,0,VALID,98.5773,VALID,-0.0169808,VALID,19.5988,VALID,216,VALID,0.897615,
2000-04-21, 01:28:01,VALID,915.878,VALID,0,VALID,98.5494,VALID,0,VALID,19.5984,VALID,205,VALID,0.761218,
2000-04-21, 01:29:00,VALID,915.862,VALID,0,VALID,98.5265,VALID,-0.0169808,VALID,19.6147,VALID,201,VALID,0.82977,
2000-04-21, 01:30:01,VALID,915.853,VALID,0,VALID,98.5125,VALID,0,VALID,19.6274,VALID,206,VALID,0.827324,
2000-04-21, 01:31:00,VALID,915.859,VALID,0,VALID,98.4667,VALID,0,VALID,19.6274,VALID,204,VALID,0.847656,
2000-04-21, 01:32:01,VALID,915.866,VALID,0,VALID,98.398,VALID,0,VALID,19.6341,VALID,205,VALID,0.910256,
2000-04-21, 01:33:00,VALID,915.869,VALID,0,VALID,98.3332,VALID,0,VALID,19.6438,VALID,199,VALID,0.926192,
2000-04-21, 01:34:01,VALID,915.876,VALID,0,VALID,98.234,VALID,0,VALID,19.657,VALID,205,VALID,1.07111,
2000-04-21, 01:35:00,VALID,915.877,VALID,0,VALID,98.0954,VALID,0,VALID,19.6535,VALID,202,VALID,1.03845,
2000-04-21, 01:36:00,VALID,915.873,VALID,0,VALID,97.9797,VALID,0,VALID,19.6796,VALID,201,VALID,0.844551,
2000-04-21, 01:37:00,VALID,915.87,VALID,0,VALID,97.9263,VALID,0,VALID,19.6992,VALID,193,VALID,0.563322,
2000-04-21, 01:38:01,VALID,915.867,VALID,0,VALID,97.9212,VALID,0,VALID,19.7054,VALID,198,VALID,0.25,
2000-04-21, 01:39:00,VALID,915.857,VALID,0,VALID,97.9364,VALID,-0.0169808,VALID,19.7084,VALID,197,VALID,0.172492,
2000-04-21, 01:40:01,VALID,915.852,VALID,0,VALID,97.9453,VALID,0,VALID,19.7119,VALID,187,VALID,0.123598,
2000-04-21, 01:41:00,VALID,915.847,VALID,0,VALID,97.9937,VALID,0,VALID,19.7084,VALID,184,VALID,0.160773,
2000-04-21, 01:42:01,VALID,915.845,VALID,0,VALID,98.0598,VALID,0.0509425,VALID,19.7211,VALID,167,VALID,0.0432692,
2000-04-21, 01:43:00,VALID,915.832,VALID,0,VALID,98.0738,VALID,0,VALID,19.7213,VALID,157,VALID,0.109992,
2000-04-21, 01:44:01,VALID,915.823,VALID,0,VALID,98.0674,VALID,0,VALID,19.7117,VALID,157,VALID,0.203526,
2000-04-21, 01:45:00,VALID,915.808,VALID,0,VALID,98,VALID,-0.0169808,VALID,19.702,VALID,158,VALID,0.463199,
2000-04-21, 01:46:01,VALID,915.792,VALID,0,VALID,98.0204,VALID,0,VALID,19.6823,VALID,157,VALID,0.409655,
2000-04-21, 01:47:00,VALID,915.772,VALID,0,VALID,98.117,VALID,0,VALID,19.6962,VALID,149,VALID,0.469161,
2000-04-21, 01:48:00,VALID,915.75,VALID,0,VALID,98.1145,VALID,0,VALID,19.6826,VALID,150,VALID,0.662861,
2000-04-21, 01:49:00,VALID,915.732,VALID,0,VALID,98.0369,VALID,0,VALID,19.6244,VALID,165,VALID,0.639453,
2000-04-21, 01:50:01,VALID,915.707,VALID,0,VALID,98.042,VALID,0,VALID,19.608,VALID,178,VALID,0.697115,
2000-04-21, 01:51:00,VALID,915.676,VALID,0,VALID,98.117,VALID,0,VALID,19.6085,VALID,197,VALID,1.01419,
2000-04-21, 01:52:01,VALID,915.648,VALID,0,VALID,98.2149,VALID,0,VALID,19.5919,VALID,212,VALID,0.905449,
2000-04-21, 01:53:00,VALID,915.64,VALID,0,VALID,98.2022,VALID,-0.0169808,VALID,19.5921,VALID,204,VALID,1.14947,
2000-04-21, 01:54:01,VALID,915.638,VALID,0,VALID,98.1463,VALID,-0.0169808,VALID,19.6085,VALID,184,VALID,1.26242,
2000-04-21, 01:55:00,VALID,915.619,VALID,0,VALID,98.0776,VALID,0,VALID,19.608,VALID,177,VALID,0.792352,
2000-04-21, 01:56:01,VALID,915.615,VALID,0,VALID,98.0649,VALID,-0.0339617,VALID,19.6217,VALID,173,VALID,0.954527,
2000-04-21, 01:57:00,VALID,915.606,VALID,0,VALID,98.0191,VALID,0,VALID,19.6217,VALID,181,VALID,0.957237,
2000-04-21, 01:58:01,VALID,915.585,VALID,0,VALID,97.9898,VALID,0,VALID,19.621,VALID,175,VALID,0.888021,
2000-04-21, 01:59:00,VALID,915.568,VALID,0,VALID,97.9759,VALID,0,VALID,19.612,VALID,172,VALID,0.787623,
2000-04-21, 02:00:00,VALID,915.553,VALID,0,VALID,98.0242,VALID,0,VALID,19.5956,VALID,186,VALID,1.01482,
2000-04-21, 02:01:00,VALID,915.523,VALID,0,VALID,98.07,VALID,-0.0169808,VALID,19.5762,VALID,181,VALID,1.17311,
2000-04-21, 02:02:01,VALID,915.514,VALID,0,VALID,98.1666,VALID,-0.0339617,VALID,19.5633,VALID,179,VALID,0.959936,
2000-04-21, 02:03:00,VALID,915.491,VALID,0,VALID,98.2327,VALID,0,VALID,19.5665,VALID,183,VALID,1.02159,
2000-04-21, 02:04:01,VALID,915.478,VALID,0,VALID,98.2493,VALID,0,VALID,19.5569,VALID,180,VALID,0.916667,
2000-04-21, 02:05:00,VALID,915.455,VALID,0,VALID,98.2607,VALID,-0.0339617,VALID,19.5536,VALID,191,VALID,0.844778,
2000-04-21, 02:06:01,VALID,915.417,VALID,0,VALID,98.2874,VALID,0,VALID,19.5663,VALID,198,VALID,1.0649,
2000-04-21, 02:07:00,VALID,915.389,VALID,0,VALID,98.281,VALID,0,VALID,19.5795,VALID,215,VALID,0.786595,
2000-04-21, 02:08:01,VALID,915.374,VALID,0,VALID,98.2696,VALID,0,VALID,19.5827,VALID,222,VALID,0.857171,
2000-04-21, 02:09:00,VALID,915.342,VALID,0,VALID,98.2416,VALID,-0.0169808,VALID,19.5698,VALID,231,VALID,1.18503,
2000-04-21, 02:10:01,VALID,915.323,VALID,0,VALID,98.2594,VALID,0,VALID,19.5539,VALID,224,VALID,0.991587,
2000-04-21, 02:11:00,VALID,915.298,VALID,0,VALID,98.2925,VALID,0.0169808,VALID,19.5246,VALID,221,VALID,1.0956,
2000-04-21, 02:12:00,VALID,915.269,VALID,0,VALID,98.3726,VALID,0,VALID,19.4987,VALID,223,VALID,0.883614,
2000-04-21, 02:13:00,VALID,915.244,VALID,0,VALID,98.4565,VALID,0,VALID,19.4823,VALID,215,VALID,1.23993,
2000-04-21, 02:14:01,VALID,915.222,VALID,0,VALID,98.5557,VALID,0,VALID,19.4759,VALID,215,VALID,1.33854,
2000-04-21, 02:15:01,VALID,915.185,VALID,0,VALID,98.6346,VALID,0,VALID,19.4706,VALID,207,VALID,1.15234,
2000-04-21, 02:16:01,VALID,915.182,VALID,0,VALID,98.6867,VALID,-0.0339617,VALID,19.4565,VALID,211,VALID,1.21054,
2000-04-21, 02:17:00,VALID,915.164,VALID,0,VALID,98.7019,VALID,0,VALID,19.4637,VALID,213,VALID,1.07566,
2000-04-21, 02:18:01,VALID,915.158,VALID,0,VALID,98.7223,VALID,0,VALID,19.4637,VALID,217,VALID,1.33534,
2000-04-21, 02:19:00,VALID,915.158,VALID,0,VALID,98.7261,VALID,0,VALID,19.4629,VALID,230,VALID,1.33039,
2000-04-21, 02:20:01,VALID,915.149,VALID,0,VALID,98.7388,VALID,0,VALID,19.4729,VALID,221,VALID,1.54447,
2000-04-21, 02:21:00,VALID,915.145,VALID,0,VALID,98.7287,VALID,0,VALID,19.4992,VALID,225,VALID,1.35156,
2000-04-21, 02:22:01,VALID,915.169,VALID,0,VALID,98.7363,VALID,-0.0169808,VALID,19.4987,VALID,224,VALID,1.23077,
2000-04-21, 02:23:00,VALID,915.179,VALID,0,VALID,98.7172,VALID,-0.0339617,VALID,19.5216,VALID,212,VALID,1.00761,
2000-04-21, 02:24:01,VALID,915.204,VALID,0,VALID,98.693,VALID,-0.0169808,VALID,19.5347,VALID,213,VALID,0.96274,
2000-04-21, 02:25:01,VALID,915.239,VALID,0,VALID,98.6625,VALID,-0.0339617,VALID,19.5407,VALID,217,VALID,0.450247,
2000-04-21, 02:26:01,VALID,915.256,VALID,0,VALID,98.632,VALID,-0.0169808,VALID,19.5569,VALID,226,VALID,0.774439,
2000-04-21, 02:27:00,VALID,915.293,VALID,0,VALID,98.5926,VALID,0,VALID,19.57,VALID,236,VALID,1.07627,
2000-04-21, 02:28:01,VALID,915.311,VALID,0,VALID,98.5633,VALID,0,VALID,19.5795,VALID,243,VALID,0.952524,
2000-04-21, 02:29:00,VALID,915.335,VALID,0,VALID,98.5315,VALID,-0.0169808,VALID,19.5988,VALID,264,VALID,0.661184,
2000-04-21, 02:30:01,VALID,915.349,VALID,0,VALID,98.4743,VALID,0,VALID,19.6349,VALID,274,VALID,0.544671,
2000-04-21, 02:31:01,VALID,915.365,VALID,0,VALID,98.412,VALID,0,VALID,19.6543,VALID,311,VALID,0.767064,
2000-04-21, 02:32:01,VALID,915.376,VALID,0,VALID,98.3395,VALID,0,VALID,19.6538,VALID,340,VALID,0.954127,
2000-04-21, 02:33:01,VALID,915.404,VALID,0,VALID,98.2671,VALID,0,VALID,19.6674,VALID,346,VALID,0.792558,
2000-04-21, 02:34:01,VALID,915.427,VALID,0,VALID,98.2772,VALID,-0.0509425,VALID,19.6672,VALID,316,VALID,0.239984,
2000-04-21, 02:35:01,VALID,915.447,VALID,0,VALID,98.3167,VALID,-0.0339617,VALID,19.6607,VALID,316,VALID,0.0668174,
2000-04-21, 02:36:01,VALID,915.47,VALID,0,VALID,98.3459,VALID,-0.0339617,VALID,19.6475,VALID,323,VALID,0,
2000-04-21, 02:37:00,VALID,915.483,VALID,0,VALID,98.3675,VALID,-0.0169808,VALID,19.6448,VALID,321,VALID,0,
2000-04-21, 02:38:01,VALID,915.493,VALID,0,VALID,98.3917,VALID,0,VALID,19.6316,VALID,322,VALID,0,
2000-04-21, 02:39:01,VALID,915.503,VALID,0,VALID,98.4324,VALID,0,VALID,19.6212,VALID,302,VALID,0.587582,
2000-04-21, 02:40:01,VALID,915.501,VALID,0,VALID,98.4298,VALID,0,VALID,19.6247,VALID,290,VALID,0.387821,
2000-04-21, 02:41:01,VALID,915.524,VALID,0,VALID,98.4438,VALID,0,VALID,19.6475,VALID,286,VALID,0.162829,
2000-04-21, 02:42:01,VALID,915.527,VALID,0,VALID,98.4336,VALID,0,VALID,19.6503,VALID,255,VALID,0.316306,
2000-04-21, 02:43:01,VALID,915.528,VALID,0,VALID,98.3891,VALID,0,VALID,19.6605,VALID,256,VALID,0.671053,
2000-04-21, 02:44:01,VALID,915.526,VALID,0,VALID,98.3357,VALID,0,VALID,19.6438,VALID,262,VALID,0.577123,
2000-04-21, 02:45:01,VALID,915.527,VALID,0,VALID,98.309,VALID,0,VALID,19.6503,VALID,275,VALID,0.378084,
2000-04-21, 02:46:01,VALID,915.518,VALID,0,VALID,98.3243,VALID,0,VALID,19.6761,VALID,281,VALID,0.164063,
2000-04-21, 02:47:01,VALID,915.52,VALID,0,VALID,98.2823,VALID,0,VALID,19.6962,VALID,279,VALID,0.125411,
2000-04-21, 02:48:01,VALID,915.52,VALID,0,VALID,98.2429,VALID,0,VALID,19.6995,VALID,291,VALID,0.0448718,
2000-04-21, 02:49:01,VALID,915.524,VALID,0,VALID,98.1501,VALID,-0.0169808,VALID,19.7057,VALID,309,VALID,0,
2000-04-21, 02:50:01,VALID,915.533,VALID,0,VALID,98.0611,VALID,-0.0509425,VALID,19.7124,VALID,310,VALID,0.215745,
2000-04-21, 02:51:01,VALID,915.524,VALID,0,VALID,97.9924,VALID,-0.0169808,VALID,19.7216,VALID,310,VALID,0.0818257,
2000-04-21, 02:52:01,VALID,915.541,VALID,0,VALID,97.9492,VALID,0,VALID,19.738,VALID,309,VALID,0,
2000-04-21, 02:53:01,VALID,915.556,VALID,0,VALID,97.9301,VALID,0.0169808,VALID,19.7472,VALID,310,VALID,0.00123355,
2000-04-21, 02:54:01,VALID,915.558,VALID,0,VALID,97.9644,VALID,0,VALID,19.7609,VALID,328,VALID,0,
2000-04-21, 02:55:01,VALID,915.565,VALID,0,VALID,97.9987,VALID,0.0169808,VALID,19.7641,VALID,88,VALID,0,
2000-04-21, 02:56:00,VALID,915.571,VALID,0,VALID,98.0344,VALID,0,VALID,19.771,VALID,94,VALID,0.275841,
2000-04-21, 02:57:00,VALID,915.589,VALID,0,VALID,98.0242,VALID,-0.0339617,VALID,19.7517,VALID,89,VALID,0.47903,
2000-04-21, 02:58:00,VALID,915.583,VALID,0,VALID,98.0153,VALID,-0.0169808,VALID,19.729,VALID,90,VALID,0.367788,
2000-04-21, 02:59:00,VALID,915.595,VALID,0,VALID,98.0433,VALID,0,VALID,19.7156,VALID,110,VALID,0.435033,
2000-04-21, 03:00:00,VALID,915.614,VALID,0,VALID,98.0814,VALID,-0.0169808,VALID,19.6925,VALID,128,VALID,0.570112,
2000-04-21, 03:01:00,VALID,915.63,VALID,0,VALID,98.0916,VALID,-0.0169808,VALID,19.6736,VALID,129,VALID,0.702303,
2000-04-21, 03:02:00,VALID,915.636,VALID,0,VALID,98.1106,VALID,-0.0169808,VALID,19.6739,VALID,132,VALID,0.683293,
2000-04-21, 03:03:00,VALID,915.652,VALID,0,VALID,98.0776,VALID,-0.0169808,VALID,19.6446,VALID,138,VALID,0.800576,
2000-04-21, 03:04:00,VALID,915.674,VALID,0,VALID,98.0649,VALID,0,VALID,19.6284,VALID,148,VALID,0.730369,
2000-04-21, 03:05:00,VALID,915.68,VALID,0,VALID,98.07,VALID,-0.0339617,VALID,19.6118,VALID,150,VALID,0.859992,
2000-04-21, 03:06:00,VALID,915.674,VALID,0,VALID,98.1221,VALID,-0.0339617,VALID,19.6023,VALID,157,VALID,0.860176,
2000-04-21, 03:07:00,VALID,915.673,VALID,0,VALID,98.1399,VALID,-0.0339617,VALID,19.5837,VALID,173,VALID,0.76213,
2000-04-21, 03:08:00,VALID,915.654,VALID,0,VALID,98.1946,VALID,-0.0339617,VALID,19.5904,VALID,171,VALID,0.475962,
2000-04-21, 03:09:00,VALID,915.646,VALID,0,VALID,98.2404,VALID,0,VALID,19.5735,VALID,171,VALID,0.38199,
2000-04-21, 03:10:00,VALID,915.623,VALID,0,VALID,98.3039,VALID,0,VALID,19.5802,VALID,171,VALID,0.342348,
2000-04-21, 03:11:00,VALID,915.62,VALID,0,VALID,98.3472,VALID,0,VALID,19.5633,VALID,168,VALID,0.355058,
2000-04-21, 03:12:00,VALID,915.589,VALID,0,VALID,98.3192,VALID,-0.0339617,VALID,19.5772,VALID,167,VALID,0.160857,
2000-04-21, 03:13:00,VALID,915.571,VALID,0,VALID,98.3472,VALID,0,VALID,19.5608,VALID,167,VALID,0,
2000-04-21, 03:14:00,VALID,915.567,VALID,0,VALID,98.4044,VALID,0,VALID,19.5504,VALID,167,VALID,0,
2000-04-21, 03:15:00,VALID,915.543,VALID,0,VALID,98.4921,VALID,-0.0339617,VALID,19.5805,VALID,167,VALID,0,
2000-04-21, 03:16:00,VALID,915.518,VALID,0,VALID,98.5405,VALID,0,VALID,19.5827,VALID,164,VALID,0,
2000-04-21, 03:17:00,VALID,915.482,VALID,0,VALID,98.5341,VALID,0,VALID,19.5827,VALID,159,VALID,0.19634,
2000-04-21, 03:18:00,VALID,915.455,VALID,0,VALID,98.5252,VALID,0,VALID,19.5698,VALID,157,VALID,0.470753,
2000-04-21, 03:19:00,VALID,915.426,VALID,0,VALID,98.5201,VALID,-0.0169808,VALID,19.5765,VALID,155,VALID,0.610609,
2000-04-21, 03:20:00,VALID,915.395,VALID,0,VALID,98.5265,VALID,-0.0169808,VALID,19.5504,VALID,155,VALID,0.529247,
2000-04-21, 03:21:00,VALID,915.364,VALID,0,VALID,98.5074,VALID,0,VALID,19.5477,VALID,168,VALID,0.653988,
2000-04-21, 03:22:00,VALID,915.349,VALID,0,VALID,98.5112,VALID,-0.0169808,VALID,19.5213,VALID,160,VALID,0.823117,
2000-04-21, 03:23:00,VALID,915.338,VALID,0,VALID,98.5176,VALID,-0.0169808,VALID,19.5154,VALID,167,VALID,0.78824,
2000-04-21, 03:24:00,VALID,915.329,VALID,0,VALID,98.5201,VALID,0,VALID,19.489,VALID,170,VALID,0.852764,
2000-04-21, 03:25:00,VALID,915.318,VALID,0,VALID,98.5697,VALID,0,VALID,19.4796,VALID,180,VALID,0.931743,
2000-04-21, 03:26:00,VALID,915.321,VALID,0,VALID,98.6167,VALID,0,VALID,19.4701,VALID,177,VALID,0.899439,
2000-04-21, 03:27:00,VALID,915.319,VALID,0,VALID,98.6409,VALID,-0.0169808,VALID,19.4607,VALID,171,VALID,1.02899,
2000-04-21, 03:28:00,VALID,915.307,VALID,0,VALID,98.6943,VALID,0,VALID,19.4445,VALID,167,VALID,1.08133,
2000-04-21, 03:29:00,VALID,915.296,VALID,0,VALID,98.7248,VALID,-0.0169808,VALID,19.4408,VALID,176,VALID,0.898232,
2000-04-21, 03:30:00,VALID,915.28,VALID,0,VALID,98.7337,VALID,-0.0169808,VALID,19.4341,VALID,192,VALID,1.05429,
2000-04-21, 03:31:00,VALID,914.813,VALID,0,VALID,98.7744,VALID,-0.0169808,VALID,19.4373,VALID,195,VALID,1.43976,
2000-04-21, 03:32:00,VALID,915.228,VALID,0,VALID,98.7935,VALID,0,VALID,19.4577,VALID,204,VALID,1.0635,
2000-04-21, 03:33:00,VALID,915.217,VALID,0,VALID,98.7922,VALID,0,VALID,19.457,VALID,192,VALID,1.23396,
2000-04-21, 03:34:00,VALID,915.213,VALID,0,VALID,98.7871,VALID,0,VALID,19.4508,VALID,197,VALID,1.16647,
2000-04-21, 03:35:00,VALID,915.205,VALID,0,VALID,98.7859,VALID,0,VALID,19.4306,VALID,173,VALID,0.950452,
2000-04-21, 03:36:00,VALID,915.198,VALID,0,VALID,98.7859,VALID,-0.0169808,VALID,19.4311,VALID,169,VALID,1.05709,
2000-04-21, 03:37:00,VALID,915.2,VALID,0,VALID,98.7782,VALID,-0.0509425,VALID,19.4214,VALID,179,VALID,0.799548,
2000-04-21, 03:38:00,VALID,915.195,VALID,0,VALID,98.7719,VALID,0,VALID,19.4281,VALID,182,VALID,0.766426,